Showing default

CONNECTA IOT-4, 60524

Orbit data source: Space-Track

CONNECTA IOT-4, 60524 is a payload satellite owned by Plan-S (TR) in SSO that was launched on Fri, 16 Aug 2024 UTC via an FALCON 9 launch vehicle from the Air Force Western Test Range (AFWTR). Payload-class satellites include a variety of spacecraft equipped with specific instruments for various scientific and technological missions. These include communications satellites like Starlink; space stations such as the ISS; scientific satellites like the Hubble; Earth observation satellites from companies like Planet Labs, Umbra, and HawkEye 360; GPS; miniature CubeSats for education and research; and military/defense satellites.

Loading next visibility...
Identifier
60524, 2024-149BJ
Orbit
SSO
Country
Flag of TRTR / TURK
Related business
Manufacturer
Plan-S
Mission
Operational Commercial Communications
Bus & Motor
CUBESAT 6U, Unknown motor
Mass
10 kg wet, 10 kg dry
Launch date (UTC)
2024-08-16 (2 years ago)
Launch vehicle
FALCON 9
Launch site
Air Force Western Test Range (AFWTR)
Object type
Payload
Rocket body
Debris
Shape & HBR
Box, 2.2 m
Radar Cross Section
0.080 m², Medium (>0.1 m² and < 1m²)

Expand to show TLE details & history
Last TLE update: 8 hours ago

TLE from 8 hours ago
0 CONNECTA IOT-4
1 60524U 24149BJ  26126.78793929  .00016444  00000-0  40467-3 0  9991
2 60524  97.3795 210.7189 0006520  85.6939 274.5052 15.40666259 95957
Epoch: 2026-05-06T18:54Z
TLE epoch observation values (Epoch: 2026-05-06T18:54:37.954Z)
Latitude
-0.00006°
Longitude
62.41736°
Altitude
446.914 km
Speed
7.644 km/s
True Right ascension
14h 02m 52s
True Declination
0° 00' 00"
Sunlit
Object was in full shadow at epoch
Visualization orbit readout
Latitude
Unknown
Longitude
Unknown
Altitude
Unknown
Speed
Unknown
Apparent Right ascension
Unknown
Apparent Declination
Unknown
Sunlit
N/A
Visualization observer readout
Local Sidereal Time
10:27:36
Azimuth
Unknown
Elevation
Unknown
Doppler factor
Unknown
Orbital elements
Apogee altitude
445.525 km
Perigee altitude
436.633 km
Semi-major axis
6,819.216 km
Eccentricity
0.00065
Inclination
97.3795°
RAAN
210.7189°
Arg. of periapsis
85.6939°
True anomaly
274.43071°
Mean anomaly
274.5052°
Eccentric anomaly
274.46796°
Mean motion
3.85426 °/min
Orbital period
93.4 mins
BSTAR
0.00040467
Loading maneuver chart data...
Computing Atmospheric mass density...
Loading historical data...
Loading historical data...
Loading historical data...
Loading historical data...
Loading historical data...
Loading historical data...
Loading historical data...

Documentation

Showing up to 5 results
|